Weather History for Wolf Point, MT

Change the Weather History Date:

Friday, March 8, 2013

  Actual Average Record
Temperature  
Mean Temperature 16 °F -  
Max Temperature 23 °F 39 °F 55 °F (2007)
Min Temperature 8 °F 14 °F -27 °F (2003)
Degree Days  
Heating Degree Days 49    
Cooling Degree Days 0    
Moisture  
Dew Point 14 °F    
Average Humidity 83    
Maximum Humidity 93    
Minimum Humidity 74    
Precipitation  
Precipitation T in 0.01 in 0.03 in (2002)
Month to date precipitation 0.21 0.08  
Year to date precipitation 0.41 0.60  
Sea Level Pressure  
Sea Level Pressure 30.12 in    
Wind  
Wind Speed 6 mph (ENE)    
Max Wind Speed 13 mph    
Max Gust Speed -    
Visibility 6 miles    
Events Snow    
T = Trace of Precipitation, MM = Missing Value Source: NWS Daily Summary

Daily Weather History Graph

Daily Weather History Graph

Search for Another Location

Airport:

Trip Planner

Search our weather history database for the weather conditions in past years. The results will help you decide how hot, cold, wet, or windy it might be!

Date:

Astronomy

Mar. 08, 2013 Rise Set
Actual Time 6:28 AM MST 5:57 PM MST
Civil Twilight 5:57 AM MST 6:28 PM MST
Nautical Twilight 5:22 AM MST 7:04 PM MST
Astronomical Twilight 4:45 AM MST 7:41 PM MST
Moon 4:27 AM MST (3/8) 2:45 PM MST (3/8)
Length of Visible Light 12h 30m
Length of Day
11h 28m
Waning Crescent, 11% of the Moon is Illuminated
Mar 8
Waning Crescent
Mar 11
New
Mar 19
First Quarter
Mar 27
Full
Apr 2
Last Quarter

Hourly Weather History & Observations

Time (MST) Temp. Windchill Dew Point Humidity Pressure Visibility Wind Dir Wind Speed Gust Speed Precip Events Conditions
12:53 AM 10.0 °F 1.8 °F 6.1 °F 84% 30.28 in 9.0 mi NW 4.6 mph - N/A   Clear
1:53 AM 10.0 °F - 6.1 °F 84% 30.25 in 9.0 mi Calm Calm - N/A   Clear
2:53 AM 12.0 °F - 7.0 °F 80% 30.25 in 6.0 mi Calm Calm - N/A   Haze
3:53 AM 10.9 °F - 8.1 °F 88% 30.26 in 7.0 mi Calm Calm - N/A   Clear
4:53 AM 10.0 °F - 6.1 °F 84% 30.27 in 7.0 mi Calm Calm - N/A   Clear
5:53 AM 8.1 °F - 3.9 °F 83% 30.28 in 8.0 mi Calm Calm - N/A   Clear
6:53 AM 8.1 °F -2.0 °F 3.0 °F 80% 30.28 in 8.0 mi NNE 5.8 mph - N/A   Clear
7:53 AM 10.9 °F 2.9 °F 6.1 °F 81% 30.27 in 7.0 mi NE 4.6 mph - N/A   Clear
8:53 AM 12.9 °F 3.8 °F 8.1 °F 81% 30.26 in 9.0 mi East 5.8 mph - N/A   Partly Cloudy
9:53 AM 16.0 °F 4.4 °F 10.0 °F 77% 30.26 in 9.0 mi East 9.2 mph - N/A   Partly Cloudy
10:53 AM 17.1 °F 4.3 °F 10.0 °F 74% 30.24 in 10.0 mi East 11.5 mph - N/A   Mostly Cloudy
11:53 AM 18.0 °F 5.4 °F 12.0 °F 78% 30.23 in 10.0 mi East 11.5 mph - N/A   Overcast
12:53 PM 19.9 °F 7.9 °F 12.9 °F 74% 30.22 in 9.0 mi East 11.5 mph - N/A   Overcast
1:53 PM 19.9 °F 7.3 °F 14.0 °F 78% 30.17 in 8.0 mi ENE 12.7 mph - N/A   Overcast
2:53 PM 21.9 °F 9.8 °F 15.1 °F 75% 30.15 in 8.0 mi East 12.7 mph - N/A   Scattered Clouds
3:53 PM 21.9 °F 10.4 °F 16.0 °F 78% 30.12 in 8.0 mi East 11.5 mph - N/A   Overcast
4:29 PM 23.0 °F 11.7 °F 17.6 °F 80% 30.00 in 8.0 mi ENE 11.5 mph - N/A   Overcast
4:53 PM 23.0 °F 11.1 °F 17.1 °F 78% 30.12 in 7.0 mi ENE 12.7 mph - N/A   Overcast
5:01 PM 23.0 °F 11.1 °F 17.6 °F 80% 30.00 in 5.0 mi ENE 12.7 mph - N/A   Haze
5:07 PM 23.0 °F 11.1 °F 17.6 °F 80% 30.01 in 1.8 mi ENE 12.7 mph - 0.00 in Snow Light Snow
5:14 PM 21.2 °F 10.1 °F 17.6 °F 86% 30.00 in 0.8 mi ENE 10.4 mph - 0.00 in Snow Light Snow
5:36 PM 21.2 °F 10.9 °F 17.6 °F 86% 30.00 in 1.0 mi ENE 9.2 mph - 0.00 in Snow Light Snow
5:47 PM 21.2 °F 9.5 °F 17.6 °F 86% 30.00 in 1.2 mi ENE 11.5 mph - 0.00 in Snow Light Snow
5:48 PM 21.9 °F 10.4 °F 18.0 °F 85% 30.11 in 1.5 mi ENE 11.5 mph - 0.00 in Snow Light Snow
5:58 PM 21.2 °F 8.9 °F 17.6 °F 86% 29.99 in 2.5 mi ENE 12.7 mph - 0.00 in   Overcast
6:07 PM 21.2 °F 10.9 °F 17.6 °F 86% 29.99 in 4.0 mi ENE 9.2 mph - 0.00 in   Overcast
6:16 PM 21.2 °F 10.1 °F 17.6 °F 86% 29.99 in 6.0 mi ENE 10.4 mph - 0.00 in   Overcast
6:53 PM 23.0 °F 12.4 °F 18.0 °F 81% 30.11 in 8.0 mi East 10.4 mph - 0.00 in   Overcast
7:09 PM 21.2 °F 10.9 °F 17.6 °F 86% 29.99 in 8.0 mi East 9.2 mph - N/A   Overcast
7:51 PM 23.0 °F 13.1 °F 19.4 °F 86% 29.99 in 8.0 mi East 9.2 mph - N/A   Overcast
7:53 PM 23.0 °F 13.9 °F 19.0 °F 85% 30.10 in 8.0 mi ENE 8.1 mph - N/A   Overcast
8:04 PM 23.0 °F 14.7 °F 19.4 °F 86% 29.99 in 8.0 mi ENE 6.9 mph - N/A   Overcast
8:53 PM 23.0 °F 13.1 °F 19.0 °F 85% 30.10 in 8.0 mi ENE 9.2 mph - N/A   Overcast
9:53 PM 23.0 °F 15.8 °F 19.9 °F 88% 30.08 in 7.0 mi East 5.8 mph - N/A   Overcast
10:53 PM 21.0 °F 16.2 °F 19.0 °F 92% 30.08 in 6.0 mi NNE 3.5 mph - N/A   Overcast
11:04 PM 19.4 °F - 17.6 °F 93% 29.97 in 5.0 mi Calm Calm - N/A   Overcast
11:13 PM 19.4 °F - 17.6 °F 93% 29.97 in 5.0 mi Calm Calm - N/A   Overcast
11:53 PM 21.0 °F - 19.0 °F 92% 30.06 in 5.0 mi Calm Calm - N/A   Overcast